Starlink 31535

operational
NORAD ID: 59504 Int'l Des: 2024-071 Owner: SPXS Country: US Constellation: starlink
LEOCIRCULAR

About Starlink 31535

Description loading...

Live Position

Loading 3D Globe...

Upcoming Passes

Altitude History

Altitude vs Time

uPlot chart will show altitude changes over time

Two-Line Element Set

1 59504U 24071W 25351.55000976 -.00000062 00000-0 72624-5 0 9990
2 59504 43.0024 91.3856 0001214 259.5114 100.5601 15.27584653 95558
Epoch: Dec 17, 2025 • Age: 25 hours

Current Status

Altitude 489.2 km
Velocity 7.62 km/s
Sub-Earth Point -26.35°S, 114.21°E
Launch Date Apr 13, 2024
Age 1.6 years
Type internet

Technical Details

Classification Payload
Mass 730.00 kg
Dry Mass 700.00 kg
Total Mass 730.00 kg
Length 0.30 m
Diameter 4.10 m
Span 29.00 m
Shape Box + pan
Manufacturer SPXS
Bus Type Starlink V2M
Phase Status In Orbit
Owner/State SPXS/US

Large Constellations

Loading constellations...